sat.trackr.live / text

‹ back to catalog

SNAP-3 EDDIE

NORAD 40972 · 2015-058J

PAYLOAD ACTIVE UNKNOWN

§ Identity

Operator
Country
US
Launch date
2015-10-08
Launch site
AFWTR
Launch vehicle
Mass (kg)
RCS (m²)

Purposes: tech_demo

External: N2YO · Heavens-Above · Gunter

§ Orbital elements

Epoch: 2026-09-16T16:08:14.681760Z

Period
87.97 min
Inclination
64.7203°
Eccentricity
0.0013970
Mean motion
16.36947050 rev/d
Perigee alt
164.8 km
Apogee alt
183.1 km
Semi-major
6,552.1 km
B*
1.2025e-3
RAAN
129.6489°
Arg perigee
261.9375°
Mean anomaly
98.0223°
Rev number
13,346

§ Raw data

SNAP-3 EDDIE1 40972U 15058J   26259.67239215  .11527157  76591-5  12025-2 0  99942 40972  64.7203 129.6489 0013970 261.9375  98.0223 16.36947050133460

JSON: /api/v1/satellites/40972 · /tle

For live sub-satellite position, see the globe view (requires WebGL).

§ Visibility from observer

Set your observer location to see the next 7 days of passes ≥ 10°. The values pass through the URL so the page stays shareable.

No JS? Fill the form by hand. The geolocation button needs JavaScript.